Weather History for Fullerton, CA

Change the Weather History Date:

Wednesday, March 14, 2012

  Actual Average Record
Temperature  
Mean Temperature 61 °F 60 °F  
Max Temperature 70 °F 70 °F 84 °F (2013)
Min Temperature 51 °F 50 °F 39 °F (2006)
Degree Days  
Heating Degree Days 4 6  
Month to date heating degree days 43 84  
Since 1 July heating degree days 733 1006  
Cooling Degree Days 0 0  
Month to date cooling degree days 18 8  
Year to date cooling degree days 48 17  
Growing Degree Days 10 (Base 50)    
Moisture  
Dew Point 48 °F    
Average Humidity 61    
Maximum Humidity 77    
Minimum Humidity 44    
Precipitation  
Precipitation 0.00 in 0.04 in 1.19 in (1982)
Month to date precipitation 0.00 1.56  
Year to date precipitation 1.43 7.84  
Since 1 July precipitation 4.10 12.07  
Snow  
Snow 0.00 in - - ()
Month to date snowfall 0.0  
Year to date snowfall 0.0  
Since 1 July snowfall 0.0  
Snow Depth 0.00 in    
Sea Level Pressure  
Sea Level Pressure 30.12 in    
Wind  
Wind Speed 4 mph (WSW)    
Max Wind Speed 12 mph    
Max Gust Speed 15 mph    
Visibility 10 miles    
Events      
T = Trace of Precipitation, MM = Missing Value Source: NWS Daily Summary

Daily Weather History Graph

Daily Weather History Graph

Search for Another Location

Airport:

Trip Planner

Search our weather history database for the weather conditions in past years. The results will help you decide how hot, cold, wet, or windy it might be!

Date:

Astronomy

Mar. 14, 2012 Rise Set
Actual Time 7:02 AM PDT 6:59 PM PDT
Civil Twilight 6:38 AM PDT 7:24 PM PDT
Nautical Twilight 6:09 AM PDT 7:53 PM PDT
Astronomical Twilight 5:39 AM PDT 8:22 PM PDT
Moon 1:20 AM PDT (3/14) 11:37 AM PDT (3/14)
Length of Visible Light 12h 46m
Length of Day
11h 56m
Waning Gibbous, 53% of the Moon is Illuminated
Mar 14
Waning Gibbous
Mar 14
Last Quarter
Mar 22
New
Mar 30
First Quarter
Apr 6
Full

Hourly Weather History & Observations

Time (PDT) Temp. Dew Point Humidity Pressure Visibility Wind Dir Wind Speed Gust Speed Precip Events Conditions
1:53 AM 53.1 °F 45.0 °F 74% 30.10 in 10.0 mi East 3.5 mph - N/A   Clear
2:53 AM 53.1 °F 45.0 °F 74% 30.09 in 10.0 mi Calm Calm - N/A   Clear
3:53 AM 51.1 °F 44.1 °F 77% 30.09 in 10.0 mi Calm Calm - N/A   Clear
4:53 AM 51.1 °F 44.1 °F 77% 30.09 in 10.0 mi Calm Calm - N/A   Clear
5:46 AM 51.8 °F 44.6 °F 76% 30.10 in 9.0 mi Calm Calm - N/A   Mostly Cloudy
5:53 AM 52.0 °F 45.0 °F 77% 30.10 in 9.0 mi Calm Calm - N/A   Mostly Cloudy
6:53 AM 54.0 °F 46.9 °F 77% 30.11 in 10.0 mi Calm Calm - N/A   Overcast
7:53 AM 55.0 °F 48.0 °F 77% 30.13 in 10.0 mi Calm Calm - N/A   Overcast
8:53 AM 57.0 °F 48.0 °F 72% 30.14 in 9.0 mi Calm Calm - N/A   Overcast
9:22 AM 57.2 °F 48.2 °F 72% 30.14 in 9.0 mi Calm Calm - N/A   Partly Cloudy
9:53 AM 60.1 °F 48.0 °F 64% 30.14 in 8.0 mi SSE 3.5 mph - N/A   Partly Cloudy
11:53 AM 66.0 °F 48.0 °F 52% 30.12 in 10.0 mi Variable 4.6 mph - N/A   Clear
12:53 PM 68.0 °F 48.9 °F 50% 30.11 in 10.0 mi SSW 8.1 mph - N/A   Clear
1:53 PM 68.0 °F 48.9 °F 50% 30.09 in 10.0 mi Variable 4.6 mph - N/A   Clear
2:53 PM 68.0 °F 48.0 °F 49% 30.09 in 10.0 mi SSW 9.2 mph - N/A   Clear
3:53 PM 69.1 °F 46.9 °F 45% 30.08 in 10.0 mi WSW 6.9 mph - N/A   Clear
4:53 PM 68.0 °F 46.9 °F 47% 30.09 in 10.0 mi WSW 8.1 mph - N/A   Clear
5:53 PM 64.0 °F 48.0 °F 56% 30.09 in 10.0 mi West 6.9 mph - N/A   Clear
6:53 PM 61.0 °F 48.9 °F 64% 30.11 in 10.0 mi West 8.1 mph - N/A   Clear
7:53 PM 59.0 °F 48.9 °F 69% 30.13 in 10.0 mi WNW 6.9 mph - N/A   Clear
8:21 PM 57.2 °F 50.0 °F 77% 30.13 in 10.0 mi WNW 6.9 mph - N/A   Mostly Cloudy
9:39 PM 59.0 °F 50.0 °F 72% 30.16 in 10.0 mi Variable 3.5 mph - N/A   Overcast
9:53 PM 59.0 °F 50.0 °F 72% 30.16 in 10.0 mi West 3.5 mph - N/A   Overcast
10:53 PM 57.9 °F 50.0 °F 75% 30.17 in 10.0 mi WNW 3.5 mph - N/A   Overcast
11:53 PM 57.9 °F 50.0 °F 75% 30.17 in 8.0 mi Calm Calm - N/A   Overcast